Regional Weather Roundup
Issued by NWS Bismarck, ND

Home | Current Version | Previous Version | Text Only | Print | Product List | Glossary On
Versions: 1 2 3 4 5 6 7 8 9 10 11 12 13 14 15 16 17 18 19 20 21 22 23 24 25 26 27 28 29 30 31 32 33 34 35 36 37 38 39 40 41 42 43 44 45 46 47 48 49 50
000
ASUS43 KBIS 192210
RWRBIS

NWR BROADCAST TEXT
NATIONAL WEATHER SERVICE BISMARCK ND
500 PM CDT FRI SEP 19 2014

NOTE: "FAIR" INDICATES FEW OR NO CLOUDS BELOW 12,000 FEET WITH NO
SIGNIFICANT WEATHER AND/OR OBSTRUCTIONS TO VISIBILITY.


CITY           SKY/WX    TMP DP  RH WIND       PRES   REMARKS
WILLISTON      CLOUDY    75  49  39 NW21      29.73R
MINOT          SUNNY     77  54  44 NW26G32   29.62R
MINOT AFB      SUNNY     81  48  32 W25       29.55S
BISMARCK       PTSUNNY   83  49  30 W21G32    29.66R
DICKINSON      PTSUNNY   75  48  38 W21G31    29.73R
GARRISON         N/A     79  50  36 NW24G37   29.64R
HETTINGER ARPT SUNNY     77  46  33 W20G31    29.78R
JAMESTOWN      SUNNY     82  52  35 W16G23    29.59R
BEACH            N/A     73  45  35 W22G31    29.79R
CARRINGTON     FAIR      82  50  32 W18G28    29.59R
CROSBY         FAIR      66  59  77 NW16      29.71S
HARVEY         FAIR      82  48  30 W17G30    29.57R
HAZEN          MOCLDY    81  46  30 NW18G32   29.65S
LINTON         FAIR      84  50  30 NW18G28   29.66S
MANDAN         FAIR      77  48  36 W21G29    29.67R
OAKES            N/A     84  63  48 W14G20    29.60S
RUGBY          FAIR      77  54  44 NW14G26   29.57R
STANLEY        FAIR      70  54  56 NW18G31   29.70R
TIOGA          FAIR      72  50  46 NW18G25   29.74R
WATFORD CITY   FAIR      75  50  41 NW17G28   29.71R
$$

CITY           SKY/WX    TMP DP  RH WIND       PRES   REMARKS
GRAND FORKS    MOSUNNY   83  60  45 W10G21    29.49S
GRAND FORKS AF SUNNY     83  56  39 W12G18    29.50S
DEVILS LAKE    SUNNY     82  54  36 W14G20    29.52S
FARGO          SUNNY     79  65  62 SW14      29.55S
CANDO          FAIR      77  52  41 NW18G25   29.55R
CAVALIER       FAIR      81  59  47 SW5       29.47F
GRAFTON        FAIR      81  59  47 W12       29.48S
GWINNER        CLEAR     81  66  61 SW13      29.60F
LANGDON        FAIR      81  50  34 W21G29    29.51S
ROLLA          FAIR      73  57  56 NW18G26   29.58R
WALHALLA       MOCLDY    81  61  50 SW5       29.46F
$$

CITY           SKY/WX    TMP DP  RH WIND       PRES   REMARKS
ABERDEEN       MOSUNNY   84  62  47 W13       29.63F
MOBRIDGE       SUNNY     84  55  36 NW12      29.66S
BUFFALO          N/A     79  45  29 W25G35    29.77R
RAPID CITY     PTSUNNY   81  49  32 N12       29.83S
GLASGOW        SUNNY     78  49  35 NW13G24   29.77R
SIDNEY         MOSUNNY  N/A N/A N/A N14       29.75R
WOLF POINT     PTSUNNY   80  51  36 W14       29.75R
GLENDIVE       PTSUNNY   75  46  35 NW24G31   29.80R
MILES CITY     CLOUDY    77  46  33 NW21G26   29.84R
BAKER          PTSUNNY   74  46  36 NW20G26   29.83R
$$

CITY           SKY/WX    TMP DP  RH WIND       PRES   REMARKS
BILLINGS       MOSUNNY   76  42  29 NW17G23   29.92R
GREAT FALLS    MOSUNNY   75  41  29 W23G30    29.92R
REGINA         PTSUNNY   66  54  63 N13       29.72R
ESTEVAN        PTSUNNY   68  61  77 W9        29.70R
$$



USA.gov is the U.S. government's official web portal to all federal, state and local government web resources and services.